User: anonymous   Login
Location: Unspecified
(0.0000°N, 0.0000°E)
Time: 09:25:12
(UTC+00:00)
Language:

Diapason D-1A - Orbit

View from above orbital plane
View from above orbital plane
View from above satellite
View from above satellite

Ground track
Ground track

The orbit data is extracted from the following two-line orbital elements,

1 02016U 66013A   17327.55377074  .00000284  00000-0  81535-4 0  9993
2 02016  34.0891 179.0679 1187711 169.4137 193.3998 12.59616185344953
Epoch (UTC): 23 November 2017 13:17:25
Eccentricity: 0.1187711
inclination: 34.0891°
perigee height: 498 km
apogee height: 2351 km
right ascension of ascending node: 179.0679°
argument of perigee: 169.4137°
revolutions per day: 12.59616185
mean anomaly at epoch: 193.3998°
orbit number at epoch: 34495

The dashed part of the orbit path shows where the satellite is in the earth's shadow,  

DLR